When you browse on this site, cookies collect data to enhance your experience and personalize the content and advertising you see.
Visit our Privacy Policy to learn more. By continuing to use the site, you agree to this use of cookies and data.
  • In Germany
  • List of Countries
  • For 7 days
  • Water Temperature
  • Satellite Maps
  • Weather Map
  • Weather Widgets
  • user-avatar
    Login

    Hourly Weather Kalyan

    Today, 16 December, Sunday

    Time Temperature Precipitation Wind Pressure Humidity
    00:00 +24°C° 0 mm 2 mps 760 mmHg 50%
    01:00 +24°C° 0 mm 3 mps 760 mmHg 50%
    02:00 +24°C° 0 mm 3 mps 759 mmHg 49%
    03:00 +24°C° 0 mm 3 mps 759 mmHg 50%
    04:00 +22°C° 0 mm 3 mps 759 mmHg 51%
    05:00 +22°C° 0 mm 3 mps 759 mmHg 50%
    06:00 +24°C° 0 mm 3 mps 760 mmHg 49%
    07:00 +23°C° 0 mm 4 mps 760 mmHg 47%
    08:00 +25°C° 0 mm 4 mps 761 mmHg 46%
    09:00 +27°C° 0 mm 4 mps 760 mmHg 41%
    10:00 +29°C° 0 mm 4 mps 760 mmHg 36%
    11:00 +32°C° 0 mm 2 mps 761 mmHg 32%
    12:00 +34°C° 0 mm 2 mps 760 mmHg 30%
    13:00 +35°C° 0 mm 2 mps 759 mmHg 28%
    14:00 +34°C° 0 mm 1 mps 758 mmHg 26%
    15:00 +34°C° 0 mm 2 mps 758 mmHg 29%
    16:00 +32°C° 0 mm 2 mps 758 mmHg 31%
    17:00 +30°C° 0 mm 3 mps 758 mmHg 34%
    18:00 +28°C° 0 mm 3 mps 758 mmHg 35%
    19:00 +27°C° 0 mm 3 mps 759 mmHg 35%
    20:00 +25°C° 0 mm 3 mps 759 mmHg 36%
    21:00 +25°C° 0 mm 3 mps 759 mmHg 35%
    22:00 +24°C° 0 mm 3 mps 759 mmHg 34%
    23:00 +22°C° 0 mm 3 mps 759 mmHg 33%

    Tomorrow, 17 December, Monday

    Time Temperature Precipitation Wind Pressure Humidity
    00:00 +22°C° 0 mm 3 mps 759 mmHg 35%
    01:00 +22°C° 0 mm 3 mps 759 mmHg 36%
    02:00 +21°C° 0 mm 3 mps 759 mmHg 38%
    03:00 +21°C° 0 mm 3 mps 759 mmHg 40%
    04:00 +20°C° 0 mm 3 mps 759 mmHg 41%
    05:00 +20°C° 0 mm 3 mps 759 mmHg 43%
    06:00 +21°C° 0 mm 2 mps 759 mmHg 43%
    07:00 +21°C° 0 mm 2 mps 760 mmHg 43%
    08:00 +23°C° 0 mm 2 mps 760 mmHg 42%
    09:00 +25°C° 0 mm 2 mps 760 mmHg 37%
    10:00 +28°C° 0 mm 2 mps 760 mmHg 32%
    11:00 +30°C° 0 mm 2 mps 760 mmHg 27%
    12:00 +31°C° 0 mm 2 mps 759 mmHg 25%
    13:00 +32°C° 0 mm 2 mps 759 mmHg 23%
    14:00 +34°C° 0 mm 2 mps 758 mmHg 21%
    15:00 +32°C° 0 mm 2 mps 758 mmHg 24%
    16:00 +31°C° 0 mm 2 mps 758 mmHg 27%
    17:00 +30°C° 0 mm 3 mps 757 mmHg 30%
    18:00 +28°C° 0 mm 3 mps 758 mmHg 32%
    19:00 +27°C° 0 mm 3 mps 758 mmHg 35%
    20:00 +25°C° 0 mm 3 mps 759 mmHg 38%
    21:00 +25°C° 0 mm 3 mps 759 mmHg 38%
    22:00 +24°C° 0 mm 3 mps 759 mmHg 38%
    23:00 +22°C° 0 mm 3 mps 759 mmHg 38%

    Day after tomorrow, 18 December, Tuesday

    Time Temperature Precipitation Wind Pressure Humidity
    00:00 +23°C° 0 mm 2 mps 759 mmHg 39%
    01:00 +21°C° 0 mm 2 mps 759 mmHg 41%
    02:00 +21°C° 0 mm 2 mps 759 mmHg 42%
    03:00 +21°C° 0 mm 2 mps 759 mmHg 45%
    04:00 +20°C° 0 mm 2 mps 759 mmHg 47%
    05:00 +20°C° 0 mm 2 mps 759 mmHg 50%
    06:00 +21°C° 0 mm 2 mps 759 mmHg 50%
    07:00 +21°C° 0 mm 2 mps 760 mmHg 49%
    08:00 +23°C° 0 mm 2 mps 761 mmHg 49%
    09:00 +25°C° 0 mm 2 mps 761 mmHg 43%
    10:00 +28°C° 0 mm 2 mps 761 mmHg 36%
    11:00 +30°C° 0 mm 2 mps 761 mmHg 30%
    12:00 +31°C° 0 mm 2 mps 760 mmHg 27%
    13:00 +32°C° 0 mm 2 mps 759 mmHg 24%
    14:00 +34°C° 0 mm 2 mps 758 mmHg 21%
    15:00 +32°C° 0 mm 2 mps 758 mmHg 24%
    16:00 +31°C° 0 mm 2 mps 758 mmHg 26%
    17:00 +30°C° 0 mm 2 mps 758 mmHg 28%
    18:00 +28°C° 0 mm 2 mps 758 mmHg 30%
    19:00 +26°C° 0 mm 3 mps 758 mmHg 31%
    20:00 +25°C° 0 mm 3 mps 759 mmHg 33%
    21:00 +24°C° 0 mm 2 mps 759 mmHg 33%
    22:00 +23°C° 0 mm 2 mps 759 mmHg 32%
    23:00 +23°C° 0 mm 2 mps 759 mmHg 32%

    19 December, Wednesday

    Time Temperature Precipitation Wind Pressure Humidity
    00:00 +21°C° 0 mm 2 mps 759 mmHg 33%
    01:00 +21°C° 0 mm 2 mps 758 mmHg 33%
    02:00 +20°C° 0 mm 2 mps 758 mmHg 34%
    03:00 +20°C° 0 mm 2 mps 758 mmHg 35%
    04:00 +19°C° 0 mm 2 mps 758 mmHg 37%
    05:00 +19°C° 0 mm 2 mps 758 mmHg 38%
    06:00 +20°C° 0 mm 2 mps 759 mmHg 39%
    07:00 +21°C° 0 mm 2 mps 760 mmHg 39%
    08:00 +23°C° 0 mm 2 mps 760 mmHg 39%
    09:00 +26°C° 0 mm 2 mps 760 mmHg 35%
    10:00 +28°C° 0 mm 2 mps 760 mmHg 30%
    11:00 +31°C° 0 mm 2 mps 760 mmHg 26%
    12:00 +32°C° 0 mm 2 mps 759 mmHg 23%
    13:00 +33°C° 0 mm 1 mps 758 mmHg 21%
    14:00 +34°C° 0 mm 1 mps 757 mmHg 19%
    15:00 +34°C° 0 mm 2 mps 757 mmHg 22%
    16:00 +31°C° 0 mm 2 mps 757 mmHg 26%
    17:00 +30°C° 0 mm 2 mps 757 mmHg 29%
    18:00 +28°C° 0 mm 2 mps 758 mmHg 32%
    19:00 +27°C° 0 mm 3 mps 758 mmHg 35%
    20:00 +25°C° 0 mm 3 mps 759 mmHg 38%
    21:00 +24°C° 0 mm 2 mps 759 mmHg 39%
    22:00 +24°C° 0 mm 2 mps 759 mmHg 40%
    23:00 +23°C° 0 mm 2 mps 759 mmHg 41%

    20 December, Thursday

    Time Temperature Precipitation Wind Pressure Humidity
    00:00 +23°C° 0 mm 2 mps 759 mmHg 41%
    01:00 +23°C° 0 mm 2 mps 758 mmHg 42%
    02:00 +21°C° 0 mm 2 mps 758 mmHg 42%
    03:00 +21°C° 0 mm 2 mps 758 mmHg 43%
    04:00 +21°C° 0 mm 2 mps 758 mmHg 44%
    05:00 +20°C° 0 mm 2 mps 758 mmHg 44%
    06:00 +21°C° 0 mm 2 mps 759 mmHg 44%
    07:00 +23°C° 0 mm 2 mps 759 mmHg 44%
    08:00 +24°C° 0 mm 3 mps 760 mmHg 44%
    09:00 +26°C° 0 mm 3 mps 760 mmHg 39%
    10:00 +29°C° 0 mm 3 mps 760 mmHg 33%
    11:00 +31°C° 0 mm 3 mps 760 mmHg 28%
    12:00 +34°C° 0 mm 2 mps 759 mmHg 26%
    13:00 +34°C° 0 mm 1 mps 758 mmHg 24%
    14:00 +35°C° 0 mm 1 mps 757 mmHg 22%
    15:00 +33°C° 0 mm 1 mps 757 mmHg 25%
    16:00 +32°C° 0 mm 2 mps 757 mmHg 29%
    17:00 +31°C° 0 mm 2 mps 757 mmHg 32%
    18:00 +29°C° 0 mm 2 mps 757 mmHg 36%
    19:00 +27°C° 0 mm 2 mps 758 mmHg 40%
    20:00 +25°C° 0 mm 2 mps 759 mmHg 44%
    21:00 +25°C° 0 mm 2 mps 759 mmHg 44%
    22:00 +24°C° 0 mm 2 mps 758 mmHg 45%
    23:00 +24°C° 0 mm 2 mps 758 mmHg 45%

    21 December, Friday

    Time Temperature Precipitation Wind Pressure Humidity
    00:00 +24°C° 0 mm 2 mps 758 mmHg 45%
    01:00 +24°C° 0 mm 2 mps 758 mmHg 44%
    02:00 +23°C° 0 mm 2 mps 757 mmHg 44%
    03:00 +23°C° 0 mm 2 mps 757 mmHg 44%
    04:00 +23°C° 0 mm 2 mps 757 mmHg 44%
    05:00 +23°C° 0 mm 2 mps 757 mmHg 45%
    06:00 +24°C° 0 mm 2 mps 758 mmHg 44%
    07:00 +25°C° 0 mm 2 mps 759 mmHg 44%
    08:00 +26°C° 0 mm 2 mps 759 mmHg 43%
    09:00 +28°C° 0 mm 2 mps 759 mmHg 40%
    10:00 +31°C° 0 mm 2 mps 759 mmHg 36%
    11:00 +34°C° 0 mm 3 mps 759 mmHg 33%
    12:00 +35°C° 0 mm 2 mps 758 mmHg 31%
    13:00 +35°C° 0 mm 1 mps 758 mmHg 30%
    14:00 +36°C° 0 mm 1 mps 757 mmHg 28%
    15:00 +35°C° 0 mm 1 mps 757 mmHg 31%
    16:00 +34°C° 0 mm 2 mps 757 mmHg 34%
    17:00 +32°C° 0 mm 2 mps 757 mmHg 37%
    18:00 +30°C° 0 mm 2 mps 757 mmHg 41%
    19:00 +29°C° 0 mm 2 mps 758 mmHg 45%
    20:00 +27°C° 0 mm 1 mps 758 mmHg 49%
    21:00 +26°C° 0 mm 1 mps 758 mmHg 50%
    22:00 +26°C° 0 mm 1 mps 758 mmHg 51%
    23:00 +25°C° 0 mm 1 mps 758 mmHg 52%
    Show more